USA 148 (26052 NORAD) Tracking and Keplerian Element Data

This shows tracking and keplerian element data for the satellite.

Feedback or suggestion? Click here.




ElementValue
Catalog26052
NameUSA 148
Epoch Orbit2796
Epoch Day34.71936862
Epoch Year2025
RAAN36.0919
Inclination11.0873
Eccentricity0.000349
Argument of Perigee268.1271
Mean Anonmoly269.1144
Mean Motion1.00274737
Decay Rate3.8E-07
L11 26052U 00001A 25034.71936862 .00000038 00000+0 00000+0 0 9991
L22 26052 11.0873 36.0919 0003490 268.1271 269.1144 1.00274737 27960



Live tracking and technical data element details for USA 148 (NORAD 26052). USA 148 can be tracked NOW for your location showing map with azimuth and elevation plus other details from your city location.







IsCatalogInMostPopularTable: catalog: 26052, numindb: 284
Update: records affected: 1



GetName: 26052 USA 148

Hit Count: updated at: Sat, 17 May 2025 08:09:50 GMT